HBNEW LFSN-ELLX

Flight info

Callsign HBNEW
Flight time 0h 20m
Altitude 13000
Route DCT GTQ GTQ1B
Aircraft SF50/L-SDGRWY/L

Departure

Time 2026-05-04 11:46
Airport Nancy-Essey Airport (LFSN)

Arrival

Time 2026-05-04 12:06
Airport Luxembourg-Findel International Airport (ELLX)
Time Latitude Longitude Altitude Speed Heading
2026-05-04 11:36 48.69075 6.22556 723 ft 0 kts 306°
2026-05-04 11:43 48.69049 6.22550 723 ft 10 kts 155°
2026-05-04 11:43 48.68992 6.22512 721 ft 20 kts 210°
2026-05-04 11:44 48.68853 6.22482 717 ft 20 kts 166°
2026-05-04 11:44 48.68720 6.22571 710 ft 22 kts 145°
2026-05-04 11:44 48.68686 6.22708 697 ft 10 kts 50°
2026-05-04 11:44 48.68696 6.22719 704 ft 0 kts 25°
2026-05-04 11:45 48.68767 6.22777 703 ft 40 kts 27°
2026-05-04 11:45 48.69203 6.23127 730 ft 101 kts 28°
2026-05-04 11:45 48.69918 6.23691 957 ft 129 kts 26°
2026-05-04 11:46 48.70787 6.24346 1228 ft 155 kts 26°
2026-05-04 11:46 48.71715 6.25158 2049 ft 149 kts 33°
2026-05-04 11:46 48.72511 6.26296 2509 ft 170 kts 54°
2026-05-04 11:46 48.73303 6.27807 2942 ft 189 kts 54°
2026-05-04 11:47 48.74158 6.29280 3629 ft 192 kts 49°
2026-05-04 11:47 48.75079 6.30767 4325 ft 194 kts 52°
2026-05-04 11:47 48.75973 6.32311 4997 ft 195 kts 53°
2026-05-04 11:47 48.76874 6.33861 5641 ft 196 kts 54°
2026-05-04 11:48 48.77771 6.35402 6280 ft 197 kts 55°
2026-05-04 11:48 48.78682 6.36969 6888 ft 198 kts 55°
2026-05-04 11:48 48.79604 6.38554 7438 ft 202 kts 54°
2026-05-04 11:48 48.80536 6.40163 7994 ft 204 kts 54°
2026-05-04 11:49 48.81484 6.41796 8537 ft 208 kts 54°
2026-05-04 11:49 48.82435 6.43443 9078 ft 210 kts 53°
2026-05-04 11:49 48.83406 6.45116 9605 ft 213 kts 53°
2026-05-04 11:49 48.84384 6.46806 10124 ft 214 kts 53°
2026-05-04 11:50 48.85366 6.48506 10593 ft 215 kts 52°
2026-05-04 11:50 48.86347 6.50204 11093 ft 216 kts 53°
2026-05-04 11:50 48.87344 6.51932 11568 ft 218 kts 52°
2026-05-04 11:50 48.88342 6.53657 12066 ft 218 kts 52°
2026-05-04 11:51 48.89346 6.55401 12542 ft 220 kts 52°
2026-05-04 11:51 48.90346 6.57135 13004 ft 222 kts 51°
2026-05-04 11:51 48.91423 6.59011 13037 ft 248 kts 51°
2026-05-04 11:51 48.92622 6.61094 13039 ft 274 kts 51°
2026-05-04 11:52 48.93904 6.63318 13032 ft 292 kts 51°
2026-05-04 11:52 48.95433 6.65402 13029 ft 306 kts 34°
2026-05-04 11:52 48.97383 6.66821 13024 ft 316 kts 18°
2026-05-04 11:52 48.99578 6.67378 13016 ft 322 kts
2026-05-04 11:53 49.01806 6.66962 13013 ft 324 kts 343°
2026-05-04 11:53 49.03853 6.65609 13014 ft 325 kts 326°
2026-05-04 11:53 49.05678 6.63588 13021 ft 325 kts 319°
2026-05-04 11:53 49.07500 6.61503 13023 ft 329 kts 320°
2026-05-04 11:55 49.20352 6.46824 12152 ft 312 kts 319°
2026-05-04 11:55 49.22113 6.44887 11890 ft 313 kts 325°
2026-05-04 11:56 49.24090 6.43464 11631 ft 315 kts 334°
2026-05-04 11:56 49.26094 6.42121 11387 ft 314 kts 333°
2026-05-04 11:56 49.28064 6.40750 11138 ft 313 kts 332°
2026-05-04 11:56 49.30067 6.39442 10886 ft 315 kts 339°
2026-05-04 11:57 49.32246 6.39080 10614 ft 318 kts
2026-05-04 11:57 49.34399 6.39831 10365 ft 317 kts 19°
2026-05-04 11:57 49.36461 6.40943 10128 ft 316 kts 19°
2026-05-04 11:57 49.38545 6.41886 9893 ft 317 kts 14°
2026-05-04 11:58 49.40725 6.42609 9621 ft 316 kts 11°
2026-05-04 11:58 49.42840 6.43331 9357 ft 314 kts 14°
2026-05-04 11:58 49.44932 6.44156 9171 ft 313 kts 15°
2026-05-04 11:58 49.47041 6.44988 8811 ft 313 kts 14°
2026-05-04 11:59 49.49161 6.45776 8406 ft 311 kts 13°
2026-05-04 11:59 49.51256 6.46557 7997 ft 309 kts 14°
2026-05-04 11:59 49.53321 6.47344 7599 ft 308 kts 13°
2026-05-04 11:59 49.55387 6.48135 7196 ft 301 kts 13°
2026-05-04 12:00 49.57353 6.48879 6801 ft 282 kts 13°
2026-05-04 12:00 49.59240 6.49593 6445 ft 274 kts 12°
2026-05-04 12:00 49.61063 6.50285 6070 ft 268 kts 12°
2026-05-04 12:00 49.62864 6.50901 5711 ft 262 kts
2026-05-04 12:01 49.64647 6.50750 5359 ft 254 kts 344°
2026-05-04 12:01 49.66272 6.49836 5032 ft 244 kts 327°
2026-05-04 12:02 49.69764 6.39051 3647 ft 178 kts 243°
2026-05-04 12:03 49.68920 6.37746 3423 ft 175 kts 203°
2026-05-04 12:03 49.68085 6.36519 3336 ft 180 kts 240°
2026-05-04 12:03 49.67541 6.34620 2958 ft 196 kts 241°
2026-05-04 12:03 49.66929 6.32794 2717 ft 180 kts 238°
2026-05-04 12:04 49.66369 6.31266 2495 ft 155 kts 236°
2026-05-04 12:04 49.65852 6.29882 2284 ft 143 kts 237°
2026-05-04 12:04 49.65362 6.28565 2087 ft 138 kts 236°
2026-05-04 12:04 49.64882 6.27281 1897 ft 138 kts 237°
2026-05-04 12:05 49.64429 6.26061 1718 ft 121 kts 238°
2026-05-04 12:05 49.64046 6.25016 1534 ft 104 kts 240°
2026-05-04 12:05 49.63724 6.24058 1367 ft 98 kts 239°
2026-05-04 12:05 49.63403 6.23196 1220 ft 81 kts 239°
2026-05-04 12:06 49.63171 6.22576 1204 ft 56 kts 242°
2026-05-04 12:06 49.63005 6.22122 1199 ft 43 kts 240°
2026-05-04 12:06 49.62863 6.21740 1191 ft 41 kts 240°
2026-05-04 12:06 49.62714 6.21343 1193 ft 44 kts 241°
2026-05-04 12:07 49.62647 6.20922 1192 ft 38 kts 272°
2026-05-04 12:07 49.62661 6.20780 1193 ft 0 kts 310°
2026-05-04 12:07 49.62665 6.20773 1193 ft 4 kts 312°
2026-05-04 12:08 49.62688 6.20740 1194 ft 0 kts 334°
2026-05-04 12:08 49.62694 6.20736 1194 ft 6 kts 343°
2026-05-04 12:08 49.62790 6.20768 1199 ft 23 kts 24°
2026-05-04 12:08 49.62865 6.20964 1201 ft 19 kts 63°
2026-05-04 12:09 49.62919 6.21126 1200 ft 15 kts 67°
2026-05-04 12:09 49.62982 6.21205 1202 ft 10 kts 360°
2026-05-04 12:09 49.63030 6.21181 1205 ft 0 kts
2026-05-04 12:09 49.63033 6.21182 1205 ft 0 kts 23°